Location: Batang Balui
(2.7000°N, 113.7833°E)
Time: 22:45:30
(UTC+00:00)

SL-08 RB Rocket - Pass Details

Date: 03 December 2021
Orbit: 646 x 683 km, 97.8° (Epoch: 27 January)

Event Time Altitude Azimuth Distance (km) Brightness Sun altitude
Rises 11:11:58 0° 161° (SSE) 3,039 7.2 -14.3°
Reaches altitude 10° 11:14:14 10° 158° (SSE) 2,124 6.3 -14.8°
Maximum altitude 11:18:49 59° 78° (ENE) 787 3.7 -15.8°
Drops below altitude 10° 11:23:23 10° 359° (N) 2,115 6.1 -16.9°
Sets 11:25:38 0° 356° (N) 3,025 6.9 -17.4°
